FW7973 Weather Reports


Display with metric or nautical units.
time (UTC)temp
F
wind
direction
speed
MPH
gust
MPH
rain 1hr
in
rain 24hr
in
rain mn
in
humidity
%
barometer
mb
20260507063029 40 163 1.0 5.0 0.00 0.01 0.01 70 1014.6
20260507061532 41 0 0.0 3.0 0.00 0.01 0.01 69 1014.4
20260507060032 41 0 0.0 9.0 0.00 0.01 0.01 67 1014.2
20260507054536 42 161 2.0 5.0 0.00 0.01 0.01 66 1014.0
20260507053033 42 192 1.0 8.0 0.00 0.01 0.01 65 1013.9
20260507051532 43 196 2.0 6.0 0.00 0.01 0.01 64 1013.7
20260507050029 44 180 2.0 6.0 0.00 0.01 0.01 63 1013.7
20260507044530 45 169 2.0 11.0 0.00 0.01 0.01 61 1013.5
20260507043032 45 186 3.0 9.0 0.00 0.01 0.01 61 1013.5
20260507041530 46 0 0.0 7.0 0.00 0.01 0.01 59 1013.4
20260507040033 46 207 3.0 12.0 0.00 0.01 0.01 58 1013.5
20260507034532 46 221 3.0 9.0 0.00 0.01 0.01 57 1013.4
20260507033032 46 220 4.0 9.0 0.00 0.01 0.01 57 1013.1
20260507031530 46 149 2.0 10.0 0.00 0.01 0.01 57 1013.0
20260507030031 47 161 2.0 9.0 0.00 0.01 0.01 55 1012.9
20260507024530 48 160 3.0 12.0 0.00 0.01 0.01 52 1012.5
20260507023032 49 141 4.0 13.0 0.00 0.01 0.01 50 1012.5
20260507021533 49 128 4.0 8.0 0.00 0.01 0.01 49 1012.3
20260507020043 48 244 4.0 12.0 0.00 0.01 0.01 51 1012.2
20260507014533 48 182 3.0 10.0 0.00 0.01 0.01 50 1012.3
20260507013046 49 175 2.0 9.0 0.00 0.01 0.01 50 1012.1
20260507011532 51 142 2.0 9.0 0.00 0.01 0.01 49 1012.1
20260507010035 50 175 2.0 9.0 0.00 0.01 0.01 53 1011.9
20260507004533 50 124 2.0 9.0 0.00 0.01 0.01 56 1011.7
20260507003041 49 169 4.0 13.0 0.00 0.01 0.01 57 1011.7
20260507001537 51 171 3.0 11.0 0.00 0.01 0.01 54 1011.6
20260507000034 49 213 2.0 7.0 0.00 0.01 0.01 55 1011.5
20260506234534 49 206 4.0 13.0 0.00 0.01 0.01 54 1011.4
20260506233032 49 0 0.0 8.0 0.00 0.01 0.01 59 1011.3
20260506231531 49 250 3.0 7.0 0.00 0.01 0.01 60 1011.3
20260506230030 49 205 2.0 9.0 0.00 0.01 0.01 58 1011.3
20260506224534 49 0 2.0 9.0 0.00 0.01 0.01 59 1011.3
20260506223041 49 236 4.0 10.0 0.00 0.01 0.01 60 1011.4
20260506221531 50 277 2.0 7.0 0.00 0.01 0.01 60 1011.5
20260506220033 49 0 1.0 6.0 0.00 0.01 0.01 65 1011.4
20260506214539 47 232 2.0 9.0 0.00 0.01 0.01 67 1011.5
20260506213030 48 200 1.0 3.0 0.00 0.01 0.01 69 1011.5
20260506211530 46 205 0.0 9.0 0.00 0.01 0.01 72 1011.3
20260506210032 47 229 2.0 6.0 0.00 0.01 0.01 72 1011.4
20260506204532 46 196 1.0 7.0 0.00 0.01 0.01 71 1011.4
20260506203033 45 167 2.0 5.0 0.00 0.01 0.01 75 1011.2
20260506201530 44 211 2.0 7.0 0.00 0.01 0.01 74 1011.3
20260506200030 43 197 1.0 6.0 0.00 0.01 0.01 78 1011.2
20260506194530 43 0 1.0 5.0 0.00 0.01 0.01 80 1011.3
20260506193032 42 180 2.0 6.0 0.00 0.01 0.01 82 1011.3
20260506191532 41 169 1.0 4.0 0.00 0.01 0.01 83 1011.4
20260506190032 40 153 1.0 4.0 0.00 0.01 0.01 84 1011.4
20260506184542 40 0 2.0 6.0 0.00 0.01 0.01 85 1011.4
20260506183038 40 194 2.0 6.0 0.00 0.01 0.01 85 1011.4
20260506181544 40 227 2.0 5.0 0.00 0.01 0.01 86 1011.3
20260506180034 39 157 1.0 4.0 0.00 0.01 0.01 88 1011.3
20260506174531 39 0 0.0 4.0 0.00 0.01 0.01 90 1011.5
20260506173031 38 218 2.0 4.0 0.00 0.01 0.01 89 1011.4
20260506171529 38 0 0.0 1.0 0.01 0.01 0.01 90 1011.4
20260506170028 38 0 0.0 1.0 0.01 0.01 0.01 89 1011.4
20260506164536 38 0 0.0 2.0 0.01 0.01 0.01 89 1011.3
20260506163032 38 0 0.0 4.0 0.01 0.01 0.01 89 1011.3
20260506161530 38 0 0.0 4.0 0.00 0.00 0.00 89 1011.3
20260506160030 38 0 0.0 5.0 0.00 0.00 0.00 89 1011.1
20260506154532 38 0 0.0 1.0 0.00 0.00 0.00 88 1011.1
20260506153036 38 0 0.0 1.0 0.00 0.00 0.00 88 1010.8
20260506151532 38 0 0.0 1.0 0.00 0.00 0.00 88 1010.9
20260506150034 37 0 0.0 0.0 0.00 0.00 0.00 89 1010.9
20260506144532 37 0 0.0 0.0 0.00 0.00 0.00 88 1010.9
20260506143032 37 0 0.0 0.0 0.00 0.00 0.00 89 1010.9
20260506141528 38 0 0.0 0.0 0.00 0.00 0.00 88 1010.9
20260506140030 38 0 0.0 0.0 0.00 0.00 0.00 87 1010.8
20260506134532 37 0 0.0 1.0 0.00 0.00 0.00 86 1010.6
20260506133032 37 0 0.0 2.0 0.00 0.00 0.00 86 1010.4
20260506131537 37 175 1.0 3.0 0.00 0.00 0.00 86 1010.3
20260506130032 37 207 2.0 5.0 0.00 0.00 0.00 85 1010.1
20260506124530 37 175 2.0 6.0 0.00 0.00 0.00 85 1010.0
20260506123028 37 217 3.0 6.0 0.00 0.00 0.00 84 1009.9
20260506121530 37 167 2.0 7.0 0.00 0.00 0.00 84 1009.8
20260506120034 37 215 2.0 8.0 0.00 0.00 0.00 85 1009.8
20260506114530 37 213 2.0 6.0 0.00 0.00 0.00 85 1009.9
20260506113037 37 198 3.0 7.0 0.00 0.00 0.00 85 1009.9
20260506111532 37 186 2.0 7.0 0.00 0.00 0.00 85 1009.7
20260506110030 37 219 0.0 4.0 0.00 0.00 0.00 85 1009.8
20260506104534 37 211 2.0 7.0 0.00 0.00 0.00 84 1009.8
20260506103031 37 207 1.0 6.0 0.00 0.00 0.00 85 1009.7
20260506101528 38 202 2.0 5.0 0.00 0.00 0.00 85 1009.6
20260506100034 37 201 1.0 5.0 0.00 0.00 0.00 85 1009.5
20260506094530 37 213 2.0 7.0 0.00 0.00 0.00 86 1009.5
20260506093031 37 207 2.0 8.0 0.00 0.00 0.00 86 1009.2
20260506091530 37 225 3.0 7.0 0.00 0.00 0.00 87 1009.1
20260506090033 38 222 2.0 7.0 0.00 0.00 0.00 87 1009.0
20260506084531 38 151 2.0 7.0 0.00 0.00 0.00 87 1009.0
20260506083031 38 242 3.0 9.0 0.00 0.00 0.00 87 1008.7
20260506081532 38 160 3.0 7.0 0.00 0.00 0.00 86 1008.7
20260506073031 39 202 2.0 7.0 0.00 0.00 0.00 85 1008.3
20260506071531 39 153 2.0 7.0 0.00 0.00 0.00 85 1008.4